Home   Weather   Koudougou   Past weeks

Flag for Burkina Faso Past Weather in Koudougou, Burkina Faso — Yesterday and Last 2 Weeks

Now
82 °F

Clear.


Feels Like: 87 °F
Forecast: 76 / 92 °F
Wind: 5 mph from Southwest

Location: Ouagadougou Airport

Current Time: May 26, 2017 at 1:37:30 am

Latest Report: May 26, 2017 at 12:00 am


Visibility: 10 mi

Pressure: 29.92 "Hg

Humidity: 70%

Dew Point: 72 °F

Location of KoudougouLocation

Past Weather in Koudougou — Graph

°F

Koudougou Temperature Yesterday

Maximum temperature yesterday: 93 °F (at 2:00 pm)
Minimum temperature yesterday: 75 °F (at 5:00 am)
Average temperature yesterday: 84 °F

High & Low Weather Summary for the Past Weeks

 TemperatureHumidityPressure
High106 °F (May 14, 3:00 pm)100% (May 11, 2:00 am)30.04 "Hg (May 11, 2:00 am)
Low72 °F (May 17, 12:00 am)25% (May 14, 3:00 pm)29.74 "Hg (May 14, 4:00 pm)
Average86 °F67%29.88 "Hg
* Reported May 10 11:00 pm — May 25 11:00 pm, Koudougou. Weather by CustomWeather, © 2017

Note: Actual official high and low records may vary slightly from our data, if they occured in-between our weather recording intervals... More about our weather records

Advertising

Koudougou Weather History for the Previous 24 Hours

Scroll right to see more
 ConditionsComfort  
Time TempWeatherWind HumidityBarometerVisibility
11:00 pm
Thu, May 25
84 °FClear.5 mph70%29.92 "Hg10 mi
10:00 pm84 °FClear.5 mph70%29.92 "Hg10 mi
9:00 pm84 °FClear.5 mph70%29.92 "Hg10 mi
8:00 pm88 °FClear.1 mph59%29.89 "Hg10 mi
7:00 pm90 °FClear.2 mph52%29.86 "Hg10 mi
6:00 pm91 °FSunny.3 mph49%29.86 "Hg10 mi
5:00 pm93 °FSunny.1 mph47%29.83 "Hg10 mi
4:00 pm93 °FSunny.5 mph44%29.86 "Hg10 mi
3:00 pm93 °FPassing clouds.6 mph49%29.86 "HgN/A
2:00 pm93 °FPassing clouds.5 mph47%29.86 "HgN/A
12:00 pm91 °FSunny.3 mph52%29.92 "Hg10 mi
11:00 am88 °FSunny.7 mph55%29.95 "Hg10 mi
10:00 am86 °FPassing clouds.7 mph62%29.98 "HgN/A
9:00 am82 °FSunny.8 mph74%29.95 "Hg10 mi
8:00 am81 °FSunny.7 mph74%29.95 "Hg10 mi
7:00 am77 °FSunny.7 mph89%29.95 "Hg10 mi
6:00 am75 °FSunny.3 mph94%29.92 "Hg10 mi
5:00 am75 °FClear.3 mph94%29.89 "Hg10 mi
4:00 am77 °FClear.5 mph89%29.89 "Hg10 mi
3:00 am77 °FClear.5 mph89%29.89 "Hg10 mi
1:00 am77 °FClear.2 mph89%29.89 "Hg10 mi
Weather by CustomWeather, © 2017

See weather overviewHow to use our weather pages